Flag for Germany Weather past 2 weeks in Viersen, North Rhine-Westphalia, Germany

Now
59 °F

Rain showers. Passing clouds.


Feels Like: 57 °F
Forecast: 42 / 62 °F
Wind: 10 mph from Northwest

Location: Monchengladbach Airport

Current Time: Sep 22, 2014 at 3:03:11 PM

Latest Report: Sep 22, 2014 at 2:20 PM


Visibility: 5 mi

Pressure: 30.09 "Hg

Humidity: 77%

Dew point: 52 °F

Location of ViersenLocation

Historic Weather in Viersen — Graph

°F

Viersen temperature yesterday

Maximum temperature yesterday: 66 °F (at 3:20 PM)
Minimum temperature yesterday: 57 °F (at 8:20 PM)
Average temperature yesterday: 62 °F

Past Weeks' High & Low Weather Summary

 TemperatureHumidityPressure
High77 °F (Sep 17, 3:20 PM)100% (Sep 8, 7:50 AM)30.24 "Hg (Sep 8, 7:50 AM)
Low48 °F (Sep 12, 7:50 AM)47% (Sep 17, 5:50 PM)29.80 "Hg (Sep 18, 7:50 PM)
Average65 °F76%30.03 "Hg
* Reported Sep 7 1:20 PM — Sep 22 1:50 PM, Viersen, Weather by CustomWeather, © 2014

Note: Actual official high and low records may vary slightly from our data, if they occured in-between our weather recording intervals... More about our weather records

Advertising

Viersen weather history for previous 24 hours

 ConditionsComfort  
Time TempWeatherWind HumidityBarometerVisibility
1:50 PM
Sep 22
55 °FPassing clouds.14 mph88%30.12 "HgN/A
1:20 PM52 °FLots of rain. Partly cloudy.18 mph94%30.12 "Hg2 mi
12:50 PM59 °FPassing clouds.15 mph68%30.09 "HgN/A
12:20 PM61 °FPassing clouds.18 mph59%30.09 "HgN/A
11:50 AM59 °FPassing clouds.15 mph63%30.09 "HgN/A
11:20 AM59 °FScattered clouds.15 mph68%30.09 "HgN/A
10:50 AM57 °FScattered clouds.10 mph72%30.09 "HgN/A
10:20 AM57 °FScattered clouds.10 mph72%30.09 "Hg5 mi
9:50 AM55 °FScattered clouds.9 mph77%30.09 "Hg5 mi
9:20 AM55 °FPartly sunny.9 mph77%30.12 "Hg5 mi
8:50 AM54 °FPartly sunny.7 mph82%30.12 "Hg4 mi
8:20 AM54 °FFog.8 mph82%30.12 "Hg3 mi
7:50 AM54 °FFog.8 mph82%30.09 "Hg3 mi
8:20 PM
Sep 21
57 °FClear.8 mph77%30.09 "Hg10 mi
7:50 PM59 °FClear.13 mph72%30.09 "Hg10 mi
7:20 PM61 °FClear.13 mph68%30.07 "Hg10 mi
6:50 PM61 °FClear.14 mph68%30.07 "Hg10 mi
6:20 PM61 °FClear.13 mph63%30.07 "Hg10 mi
5:50 PM63 °FClear.15 mph64%30.04 "Hg10 mi
5:20 PM64 °FPassing clouds.14 mph56%30.04 "HgN/A
4:20 PM64 °FPassing clouds.14 mph60%30.04 "HgN/A
3:50 PM66 °FPassing clouds.13 mph52%30.04 "HgN/A
3:20 PM66 °FPassing clouds.12 mph60%30.04 "HgN/A
Weather by CustomWeather, © 2014

See weather overviewHow to use our weather pages